When you browse on this site, cookies collect data to enhance your experience and personalize the content and advertising you see.
Visit our Privacy Policy to learn more. By continuing to use the site, you agree to this use of cookies and data.
  • In Hungary
  • List of Countries
  • For 7 days
  • Water Temperature
  • Satellite Maps
  • Weather Map
  • News
  • Weather Widgets
  • user-avatar
    Login

    Hourly Weather Alak

    Today, 21 November, Wednesday

    Time Temperature Precipitation Wind Pressure Humidity
    00:00 +28°C° 0 mm 3 mps 756 mmHg 31%
    01:00 +28°C° 0 mm 3 mps 756 mmHg 32%
    02:00 +28°C° 0 mm 3 mps 756 mmHg 32%
    03:00 +27°C° 0 mm 3 mps 756 mmHg 33%
    04:00 +27°C° 0 mm 3 mps 756 mmHg 34%
    05:00 +27°C° 0 mm 3 mps 756 mmHg 35%
    06:00 +27°C° 0 mm 4 mps 756 mmHg 33%
    07:00 +28°C° 0 mm 4 mps 757 mmHg 32%
    08:00 +29°C° 0 mm 4 mps 757 mmHg 30%
    09:00 +30°C° 0 mm 4 mps 757 mmHg 28%
    10:00 +33°C° 0 mm 3 mps 757 mmHg 26%
    11:00 +35°C° 0 mm 3 mps 757 mmHg 24%
    12:00 +35°C° 0 mm 3 mps 756 mmHg 23%
    13:00 +36°C° 0 mm 2 mps 756 mmHg 23%
    14:00 +37°C° 0 mm 2 mps 755 mmHg 22%
    15:00 +36°C° 0 mm 2 mps 755 mmHg 22%
    16:00 +36°C° 0 mm 2 mps 755 mmHg 23%
    17:00 +36°C° 0 mm 2 mps 755 mmHg 23%
    18:00 +35°C° 0 mm 3 mps 755 mmHg 24%
    19:00 +34°C° 0 mm 3 mps 756 mmHg 25%
    20:00 +33°C° 0 mm 4 mps 756 mmHg 27%
    21:00 +33°C° 0 mm 4 mps 756 mmHg 27%
    22:00 +32°C° 0 mm 5 mps 756 mmHg 28%
    23:00 +32°C° 0 mm 5 mps 756 mmHg 28%

    Tomorrow, 22 November, Thursday

    Time Temperature Precipitation Wind Pressure Humidity
    00:00 +30°C° 0 mm 5 mps 756 mmHg 29%
    01:00 +30°C° 0 mm 5 mps 756 mmHg 30%
    02:00 +29°C° 0 mm 5 mps 755 mmHg 31%
    03:00 +29°C° 0 mm 5 mps 755 mmHg 32%
    04:00 +28°C° 0 mm 4 mps 755 mmHg 33%
    05:00 +28°C° 0 mm 4 mps 755 mmHg 34%
    06:00 +28°C° 0 mm 4 mps 756 mmHg 32%
    07:00 +29°C° 0 mm 5 mps 756 mmHg 31%
    08:00 +30°C° 0 mm 5 mps 757 mmHg 29%
    09:00 +32°C° 0 mm 5 mps 757 mmHg 26%
    10:00 +34°C° 0 mm 5 mps 757 mmHg 24%
    11:00 +36°C° 0 mm 5 mps 757 mmHg 21%
    12:00 +37°C° 0 mm 4 mps 756 mmHg 20%
    13:00 +37°C° 0 mm 4 mps 755 mmHg 19%
    14:00 +38°C° 0 mm 3 mps 754 mmHg 18%
    15:00 +38°C° 0 mm 3 mps 754 mmHg 18%
    16:00 +37°C° 0 mm 3 mps 754 mmHg 19%
    17:00 +37°C° 0 mm 4 mps 754 mmHg 19%
    18:00 +36°C° 0 mm 5 mps 754 mmHg 21%
    19:00 +35°C° 0 mm 6 mps 755 mmHg 24%
    20:00 +34°C° 0 mm 7 mps 755 mmHg 26%
    21:00 +33°C° 0 mm 7 mps 756 mmHg 26%
    22:00 +32°C° 0 mm 7 mps 756 mmHg 27%
    23:00 +32°C° 0 mm 7 mps 756 mmHg 27%

    Day after tomorrow, 23 November, Friday

    Time Temperature Precipitation Wind Pressure Humidity
    00:00 +30°C° 0 mm 7 mps 756 mmHg 28%
    01:00 +29°C° 0 mm 7 mps 755 mmHg 28%
    02:00 +29°C° 0 mm 7 mps 755 mmHg 29%
    03:00 +28°C° 0 mm 6 mps 755 mmHg 31%
    04:00 +28°C° 0 mm 6 mps 755 mmHg 33%
    05:00 +27°C° 0 mm 6 mps 755 mmHg 35%
    06:00 +28°C° 0 mm 6 mps 756 mmHg 33%
    07:00 +28°C° 0 mm 7 mps 757 mmHg 32%
    08:00 +29°C° 0 mm 7 mps 757 mmHg 31%
    09:00 +32°C° 0 mm 7 mps 757 mmHg 27%
    10:00 +34°C° 0 mm 7 mps 757 mmHg 23%
    11:00 +35°C° 0 mm 7 mps 757 mmHg 20%
    12:00 +36°C° 0 mm 7 mps 756 mmHg 19%
    13:00 +38°C° 0 mm 6 mps 755 mmHg 19%
    14:00 +38°C° 0 mm 6 mps 754 mmHg 18%
    15:00 +38°C° 0 mm 6 mps 754 mmHg 19%
    16:00 +36°C° 0 mm 6 mps 754 mmHg 20%
    17:00 +36°C° 0 mm 5 mps 754 mmHg 21%
    18:00 +34°C° 0 mm 6 mps 755 mmHg 23%
    19:00 +33°C° 0 mm 7 mps 755 mmHg 25%
    20:00 +32°C° 0 mm 8 mps 756 mmHg 27%
    21:00 +30°C° 0 mm 7 mps 756 mmHg 27%
    22:00 +30°C° 0 mm 7 mps 756 mmHg 28%
    23:00 +29°C° 0 mm 7 mps 756 mmHg 29%

    24 November, Saturday

    Time Temperature Precipitation Wind Pressure Humidity
    00:00 +29°C° 0 mm 7 mps 755 mmHg 29%
    01:00 +29°C° 0 mm 7 mps 755 mmHg 30%
    02:00 +28°C° 0 mm 7 mps 755 mmHg 30%
    03:00 +28°C° 0 mm 7 mps 755 mmHg 32%
    04:00 +27°C° 0 mm 7 mps 755 mmHg 34%
    05:00 +27°C° 0 mm 7 mps 755 mmHg 35%
    06:00 +27°C° 0 mm 7 mps 755 mmHg 36%
    07:00 +28°C° 0 mm 8 mps 756 mmHg 36%
    08:00 +28°C° 0 mm 8 mps 757 mmHg 36%
    09:00 +29°C° 0 mm 8 mps 756 mmHg 34%
    10:00 +32°C° 0 mm 8 mps 756 mmHg 31%
    11:00 +33°C° 0 mm 8 mps 756 mmHg 28%
    12:00 +34°C° 0 mm 7 mps 755 mmHg 26%
    13:00 +35°C° 0 mm 7 mps 755 mmHg 24%
    14:00 +38°C° 0 mm 6 mps 754 mmHg 22%
    15:00 +36°C° 0 mm 6 mps 754 mmHg 23%
    16:00 +36°C° 0 mm 6 mps 754 mmHg 24%
    17:00 +35°C° 0 mm 6 mps 754 mmHg 24%
    18:00 +34°C° 0 mm 6 mps 755 mmHg 26%
    19:00 +33°C° 0 mm 7 mps 755 mmHg 28%
    20:00 +32°C° 0 mm 7 mps 756 mmHg 30%
    21:00 +30°C° 0 mm 7 mps 756 mmHg 31%
    22:00 +30°C° 0 mm 7 mps 756 mmHg 33%
    23:00 +29°C° 0 mm 7 mps 756 mmHg 34%

    25 November, Sunday

    Time Temperature Precipitation Wind Pressure Humidity
    00:00 +29°C° 0 mm 7 mps 756 mmHg 35%
    01:00 +28°C° 0 mm 7 mps 755 mmHg 36%
    02:00 +28°C° 0 mm 7 mps 755 mmHg 38%
    03:00 +28°C° 0 mm 7 mps 755 mmHg 39%
    04:00 +27°C° 0 mm 7 mps 755 mmHg 39%
    05:00 +27°C° 0 mm 7 mps 755 mmHg 40%
    06:00 +27°C° 0 mm 7 mps 755 mmHg 40%
    07:00 +27°C° 0 mm 7 mps 756 mmHg 40%
    08:00 +28°C° 0 mm 7 mps 756 mmHg 39%
    09:00 +29°C° 0 mm 7 mps 756 mmHg 37%
    10:00 +30°C° 0 mm 6 mps 756 mmHg 34%
    11:00 +32°C° 0 mm 6 mps 756 mmHg 31%
    12:00 +33°C° 0 mm 6 mps 756 mmHg 29%
    13:00 +34°C° 0 mm 5 mps 755 mmHg 26%
    14:00 +35°C° 0 mm 5 mps 754 mmHg 24%
    15:00 +35°C° 0 mm 5 mps 754 mmHg 24%
    16:00 +35°C° 0 mm 5 mps 754 mmHg 24%
    17:00 +34°C° 0 mm 4 mps 754 mmHg 25%
    18:00 +33°C° 0 mm 5 mps 755 mmHg 26%
    19:00 +33°C° 0 mm 5 mps 755 mmHg 27%
    20:00 +32°C° 0 mm 5 mps 756 mmHg 28%
    21:00 +30°C° 0 mm 5 mps 755 mmHg 30%
    22:00 +30°C° 0 mm 5 mps 755 mmHg 31%
    23:00 +30°C° 0 mm 5 mps 755 mmHg 32%

    26 November, Monday

    Time Temperature Precipitation Wind Pressure Humidity
    00:00 +29°C° 0 mm 5 mps 755 mmHg 34%
    01:00 +29°C° 0 mm 5 mps 754 mmHg 35%
    02:00 +29°C° 0 mm 5 mps 754 mmHg 37%
    03:00 +28°C° 0 mm 5 mps 754 mmHg 38%
    04:00 +28°C° 0 mm 5 mps 754 mmHg 39%
    05:00 +27°C° 0 mm 5 mps 754 mmHg 40%
    06:00 +28°C° 0 mm 5 mps 754 mmHg 38%
    07:00 +28°C° 0 mm 6 mps 755 mmHg 37%
    08:00 +29°C° 0 mm 6 mps 755 mmHg 35%
    09:00 +30°C° 0 mm 6 mps 755 mmHg 31%
    10:00 +33°C° 0 mm 6 mps 755 mmHg 27%
    11:00 +35°C° 0 mm 6 mps 755 mmHg 23%
    12:00 +36°C° 0 mm 5 mps 754 mmHg 20%
    13:00 +37°C° 0 mm 5 mps 754 mmHg 18%
    14:00 +37°C° 0 mm 4 mps 753 mmHg 15%
    15:00 +37°C° 0 mm 4 mps 753 mmHg 15%
    16:00 +36°C° 0 mm 4 mps 753 mmHg 15%
    17:00 +36°C° 0 mm 3 mps 753 mmHg 16%
    18:00 +35°C° 0 mm 3 mps 753 mmHg 16%
    19:00 +34°C° 0 mm 4 mps 754 mmHg 17%
    20:00 +34°C° 0 mm 4 mps 754 mmHg 18%
    21:00 +33°C° 0 mm 4 mps 754 mmHg 19%
    22:00 +32°C° 0 mm 4 mps 754 mmHg 20%
    23:00 +32°C° 0 mm 4 mps 754 mmHg 21%
    Show more